Location: Baureith
(48.6333°N, 13.9833°E)
Time: 14:29:28
(UTC+00:00)

Daily predictions for brighter satellites

Satellite Brightness Start Highest point End
(mag) Time Altitude Azimuth Time Altitude Azimuth Time Altitude Azimuth
COSMOS 2428 4.0 17:53:31 10° SW 17:59:01 47° NW 18:04:34 10° NNE
CZ-4 R/B 3.0 17:55:50 10° SSW 17:59:27 37° W 18:03:04 10° NNW
STARLINK-1119 4.1 17:56:14 10° WNW 18:00:18 52° NNE 18:04:21 10° E
STARLINK-1239 4.0 17:57:11 10° SW 18:01:03 44° SE 18:04:55 10° ENE
STARLINK-1126 3.7 17:57:19 10° WNW 18:01:24 78° SSW 18:05:29 10° ESE
BREEZE-M DEB (TANK) 3.9 17:56:43 10° SW 18:03:08 28° SSE 18:05:55 10° E
Ariane Rocket 3.1 18:00:11 10° SSE 18:05:11 63° ENE 18:10:12 10° N
STARLINK-1114 4.1 18:01:15 10° WNW 18:05:20 53° NNE 18:09:25 10° E
STARLINK-1240 3.9 18:01:50 10° SW 18:05:45 48° SE 18:09:40 10° ENE
STARLINK-1082 3.7 18:01:52 10° WNW 18:05:56 74° SSW 18:09:59 10° SE
SJ-6B 3.7 18:02:58 10° SE 18:06:40 34° ENE 18:10:26 10° N
Cosmos 1733 3.3 18:03:46 10° S 18:07:26 53° E 18:11:08 10° NNE
SJ-11-01 4.3 18:02:47 10° SSE 18:07:26 72° ENE 18:12:10 10° N
Meteor 1-22 Rocket 4.1 18:04:36 10° S 18:09:46 59° E 18:14:59 10° NNE
Cosmos 1758 4.5 18:06:34 10° SE 18:09:52 24° E 18:13:11 10° NE
Cosmos 1674 3.2 18:06:18 10° NNW 18:10:02 62° W 18:13:43 10° S
Cosmos 1110 Rocket 4.1 18:04:58 10° NNW 18:10:16 83° WSW 18:15:28 10° SSE
STARLINK-1130 (DARKSAT) 4.0 18:06:13 10° WNW 18:10:19 55° NNE 18:14:24 10° E
ARGOS Delta rocket 4.1 18:05:17 10° SSE 18:10:22 68° ENE 18:15:43 10° N
STARLINK-1216 3.8 18:06:32 10° SW 18:10:28 51° SE 18:14:25 10° ENE
STARLINK-1100 3.8 18:06:44 10° WNW 18:10:47 69° SSW 18:14:50 10° SE
IRS-1A Rocket 4.3 18:05:37 10° SSE 18:11:13 69° ENE 18:16:59 10° NNW
Aureole 2 Rocket 4.4 18:09:19 10° NNE 18:11:27 15° NE 18:13:33 10° E
ATLAS CENTAUR R/B 4.1 18:09:00 10° WNW 18:11:29 15° NNW 18:13:53 10° N
Cosmos 1553 Rocket 4.2 18:06:33 10° SSW 18:12:37 78° W 18:18:45 10° N
NOSS 2-1 (E) 4.0 18:09:43 10° WSW 18:13:03 52° NW 18:16:51 10° NE
Cosmos 2219 Rocket 3.9 18:07:55 10° WSW 18:13:06 36° NW 18:18:18 10° NNE
STARLINK-1237 3.7 18:11:15 10° SW 18:15:13 55° SSE 18:19:12 10° ENE
STARLINK-1084 4.0 18:11:11 10° WNW 18:15:17 57° NNE 18:19:17 11° E
STARLINK-1083 3.9 18:11:29 10° WNW 18:15:31 65° SSW 18:19:33 10° SE
STARLINK-1209 2.8 18:15:04 10° WSW 18:18:00 76° NNW 18:20:56 10° ENE
Cosmos 1943 Rocket 2.9 18:12:54 10° NNW 18:18:03 37° NE 18:23:01 11° ESE
STARLINK-1202 3.7 18:15:57 10° SW 18:19:56 59° SSE 18:23:57 10° ENE
ATLAS 2AS CENTAUR R/B 4.1 18:13:05 10° NW 18:19:58 32° NNE 18:26:27 10° E
STARLINK-1228 2.8 18:17:16 10° WSW 18:20:09 73° NNW 18:23:02 10° ENE
STARLINK-1125 3.9 18:16:13 10° WNW 18:20:16 61° SSW 18:24:18 10° SE
STARLINK-1098 3.9 18:16:11 10° WNW 18:20:17 59° NNE 18:24:04 12° E
SL-14 R/B 3.3 18:17:07 10° N 18:21:10 64° ENE 18:25:10 10° SSE
Cosmos 1980 4.3 18:18:35 10° SW 18:24:14 64° WNW 18:29:54 10° NNE
STARLINK-1109 4.0 18:20:49 10° WNW 18:24:49 57° SSW 18:28:41 11° SE
SL-8 R/B 3.7 18:20:23 10° W 18:25:10 90° SSW 18:29:36 12° E
STARLINK-1123 3.9 18:21:10 10° WNW 18:25:18 61° NNE 18:28:51 13° E
ERBS 3.8 18:23:40 10° W 18:26:50 36° NNW 18:30:00 10° NE
STARLINK-1246 3.6 18:22:56 10° SW 18:27:00 65° SSE 18:31:04 10° ENE
Cosmos 2315 Rocket 4.1 18:22:40 10° SSE 18:28:48 56° E 18:35:00 10° NNE
Cosmos 1766 3.9 18:25:14 10° SSW 18:29:11 61° WNW 18:33:09 10° N
STARLINK-1091 4.1 18:25:38 10° WNW 18:29:38 54° SSW 18:33:19 12° SE
STARLINK-1097 3.8 18:26:08 10° WNW 18:30:16 64° NNE 18:33:37 15° E
ADEOS Rocket 3.9 18:24:03 10° N 18:30:47 58° WNW 18:36:49 10° SW
USA 234 3.6 18:24:47 10° ENE 18:30:56 41° SE 18:37:02 10° SSW
Resurs 1-3 4.3 18:28:08 11° SE 18:31:59 34° ENE 18:35:57 10° N
STARLINK-67 3.3 18:29:51 10° W 18:32:21 45° NNW 18:34:49 10° ENE
STARLINK-1201 3.0 18:29:31 10° WSW 18:32:47 81° NNW 18:36:04 10° ENE
Cosmos 1626 2.0 18:29:58 10° N 18:33:41 84° E 18:37:23 10° S
Meteor 2-8 Rocket 4.5 18:27:44 10° S 18:33:54 87° E 18:40:04 10° N
STARLINK-1224 3.5 18:30:10 10° SW 18:34:12 72° SSE 18:38:16 10° ENE
STARLINK-1099 3.8 18:31:08 10° WNW 18:35:16 67° NNE 18:38:25 17° E
H-2A R/B 2.1 18:30:01 10° SSE 18:35:20 88° WSW 18:40:32 10° NNW
STARLINK-1203 3.4 18:31:51 10° WSW 18:35:49 78° SSE 18:39:49 10° ENE
Aureole 3 4.4 18:32:43 10° SSE 18:36:25 33° E 18:41:00 10° NNE
SL-16 R/B 2.2 18:32:30 10° SSW 18:38:05 66° ESE 18:43:43 10° NNE
STARLINK-1225 3.5 18:34:46 10° SW 18:38:50 76° SSE 18:42:55 10° ENE
STARLINK-1072 4.3 18:35:59 10° WNW 18:39:51 45° SW 18:43:08 13° SE
SL-08 RB Rocket 3.7 18:35:29 10° SSE 18:39:56 64° ENE 18:44:29 10° N
STARLINK-1104 3.7 18:36:07 10° WNW 18:40:15 70° NNE 18:43:12 19° ESE
TSX-5 4.2 18:35:18 10° NNW 18:40:54 81° ENE 18:44:38 13° SE
Resurs 01 Rocket 2.5 18:38:54 16° ESE 18:41:44 31° ENE 18:45:39 10° N
STARLINK-1230 3.5 18:39:31 10° WSW 18:43:35 81° SSE 18:47:32 11° ENE
STARLINK-1096 4.5 18:40:22 10° WNW 18:44:11 42° SW 18:47:19 14° SSE
STARLINK-1144 3.7 18:41:06 10° WNW 18:45:15 73° NNE 18:47:59 21° ESE
Meteor 2-15 4.4 18:39:36 10° S 18:45:34 65° E 18:51:35 10° NNE
FREGAT/IRIS 3.1 18:43:23 10° S 18:46:03 54° W 18:48:45 10° NNW
STARLINK-1233 3.2 18:43:07 10° WSW 18:46:13 65° NNW 18:48:52 14° ENE
STARLINK-1212 3.2 18:43:34 10° WSW 18:46:41 64° NNW 18:49:17 14° ENE
STARLINK-1105 3.2 18:44:00 10° WSW 18:47:07 64° NNW 18:49:44 14° ENE
STARLINK-1206 3.2 18:44:30 10° WSW 18:47:36 64° NNW 18:50:09 14° ENE
Cosmos 1302 Rocket 4.1 18:42:21 10° NNW 18:47:40 82° WSW 18:52:57 10° SSE
STARLINK-1247 3.2 18:44:57 10° WSW 18:48:02 63° NNW 18:50:34 14° ENE
STARLINK-1243 3.5 18:44:19 10° WSW 18:48:24 85° SSE 18:52:09 12° ENE
STARLINK-1227 3.2 18:45:22 10° WSW 18:48:29 63° NNW 18:51:01 14° ENE
STARLINK-1218 3.2 18:45:51 10° WSW 18:48:57 62° NNW 18:51:26 15° ENE
Abrixas rocket 3.4 18:46:53 10° SSW 18:49:06 20° SSE 18:49:06 20° SSE
STARLINK-1226 3.3 18:46:17 10° WSW 18:49:24 62° NNW 18:51:53 15° ENE
Cosmos 1992 Rocket 4.4 18:44:30 10° NNW 18:49:32 46° ENE 18:52:56 19° SE
STARLINK-1254 3.3 18:46:44 10° WSW 18:49:50 62° NNW 18:52:20 15° ENE
STARLINK-1103 3.6 18:46:04 10° WNW 18:50:14 76° NNE 18:52:45 23° ESE
STARLINK-1215 3.3 18:47:13 10° WSW 18:50:19 61° NNW 18:52:45 15° ENE
Cosmos 1709 Rocket 4.1 18:44:16 10° N 18:50:32 81° W 18:56:40 10° S
STARLINK-1231 3.3 18:47:39 10° WSW 18:50:44 61° NNW 18:53:10 15° ENE
Cosmos 1953 2.9 18:47:34 12° SSE 18:50:51 34° E 18:54:29 10° NNE
STARLINK-1232 3.3 18:48:34 10° WSW 18:51:39 60° NNW 18:54:03 16° ENE
STARLINK-1217 3.3 18:49:01 10° WSW 18:52:06 60° NNW 18:54:28 16° ENE
STARLINK-1208 3.3 18:49:26 10° WSW 18:52:32 60° NNW 18:54:56 16° ENE
STARLINK-1229 3.3 18:49:55 10° W 18:53:00 59° NNW 18:55:20 16° ENE
STARLINK-1236 3.5 18:49:06 10° WSW 18:53:10 90° SSE 18:56:45 13° ENE
STARLINK-1271 3.3 18:50:22 10° W 18:53:28 59° NNW 18:55:46 16° ENE
STARLINK-1270 3.3 18:50:50 10° W 18:53:55 59° NNW 18:56:13 16° ENE
STARLINK-1154 3.4 18:51:17 10° W 18:54:22 59° NNW 18:56:39 17° ENE
Cosmos 1269 Rocket 4.2 18:49:40 10° SSW 18:54:57 76° WNW 19:00:18 10° NNE
STARLINK-1101 3.6 18:51:03 10° WNW 18:55:12 80° NNE 18:57:32 25° ESE
STARLINK-1197 3.4 18:52:11 10° W 18:55:16 58° NNW 18:57:31 17° ENE
STARLINK-1189 3.4 18:52:39 10° W 18:55:43 58° NNW 18:57:57 17° ENE
STARLINK-1187 3.5 18:53:30 10° W 18:56:36 54° NNW 18:58:50 17° ENE
STARLINK-1188 3.4 18:53:33 10° W 18:56:38 57° NNW 18:58:49 17° ENE
STARLINK-1198 3.4 18:53:33 10° W 18:56:38 57° NNW 18:58:49 17° ENE
SL-24 R/B 4.2 18:52:21 10° NNE 18:56:56 53° E 19:00:54 10° S
STARLINK-1235 3.6 18:54:14 10° W 18:57:19 50° NNW 18:59:33 17° NE
CZ-4C R/B 4.4 18:53:14 10° WNW 18:57:53 23° N 19:03:12 10° NE
STARLINK-1199 3.4 18:55:29 10° W 18:58:35 56° NNW 19:00:44 18° ENE
STARLINK-1191 3.5 18:55:56 10° W 18:59:02 56° NNW 19:01:10 18° ENE
STARLINK-1210 3.5 18:56:24 10° W 18:59:30 55° NNW 19:01:36 18° ENE
STARLINK-1221 3.5 18:56:51 10° W 18:59:57 55° NNW 19:02:02 19° NE
Cosmos 1603 4.4 18:55:19 10° SSE 19:00:08 30° ESE 19:04:57 10° NE
STARLINK-1102 3.6 18:56:01 10° WNW 19:00:11 84° NNE 19:02:19 28° ESE
STARLINK-1219 3.5 18:57:18 10° W 19:00:24 55° NNW 19:02:29 19° NE
STARLINK-1222 3.5 18:57:46 10° W 19:00:51 55° NNW 19:02:54 19° NE
STARLINK-1211 3.5 18:58:12 10° W 19:01:18 54° NNW 19:03:19 19° NE
ISS -3.7 18:57:59 10° WNW 19:01:20 73° NNE 19:02:41 33° E
STARLINK-1214 3.5 18:58:40 10° W 19:01:45 54° NNW 19:03:46 19° NE
Cosmos 2297 4.4 18:56:35 10° NW 19:02:06 53° WSW 19:07:37 10° S
STARLINK-1245 3.5 18:59:09 10° W 19:02:12 54° NNW 19:04:10 20° NE
Cosmos 1455 Rocket 4.3 18:58:24 10° SSW 19:02:33 43° WNW 19:06:44 10° N
Cosmos 2251 Rocket 3.9 18:57:35 10° S 19:02:33 40° ESE 19:07:34 10° NE
STARLINK-1238 3.5 18:59:32 10° W 19:02:37 54° NNW 19:04:37 20° NE
STARLINK-1269 3.6 18:58:56 10° WSW 19:03:01 82° NNW 19:06:12 16° ENE
Cosmos 2074 Rocket 4.1 18:57:16 10° N 19:03:27 56° ENE 19:08:16 17° SSE
STARLINK-1205 3.5 19:00:28 10° W 19:03:32 53° NNW 19:05:26 20° NE
BREEZE-M DEB (TANK) 3.6 18:56:29 10° W 19:03:47 84° N 19:05:20 30° E
STARLINK-1204 3.5 19:00:57 10° W 19:04:00 53° NNW 19:05:54 20° NE
Cosmos 2084 Rocket 3.5 19:00:10 10° NW 19:04:40 74° NE 19:06:58 28° SE
STARLINK-1111 3.5 19:01:00 10° WNW 19:05:10 89° NNE 19:07:06 31° ESE
STARLINK-1200 3.6 19:03:45 10° WSW 19:07:50 78° NNW 19:10:50 18° ENE
Cosmos 2237 Rocket 3.9 19:02:47 10° WSW 19:07:56 36° NW 19:13:07 10° NNE
Cosmos 1703 4.2 19:04:28 10° N 19:07:57 29° ENE 19:08:26 28° E
CZ-2C R/B 2.7 19:03:32 10° NNE 19:08:33 47° E 19:13:31 10° S
Cosmos 1626 Rocket 4.0 19:05:02 10° NNW 19:09:24 61° W 19:13:41 10° S
ERS-1 Rocket 4.5 19:08:38 18° ENE 19:09:51 20° ENE 19:13:26 10° NNE
STARLINK-1073 3.5 19:05:59 10° WNW 19:10:09 87° SSW 19:11:53 34° ESE
STARLINK-1192 3.7 19:08:30 10° WSW 19:12:35 75° NNW 19:15:24 19° ENE
STARLINK-1121 3.5 19:10:58 10° WNW 19:15:07 82° SSW 19:16:39 38° SE
ARGOS 4.0 19:10:36 10° S 19:15:50 50° W 19:21:06 10° NNW
Cosmos 292 Rocket 3.7 19:11:09 10° NNW 19:15:58 78° ENE 19:18:32 28° SSE
Cosmos 1602 Rocket 4.0 19:12:58 10° NNW 19:17:25 65° W 19:21:45 10° S
STARLINK-1244 3.8 19:13:26 10° WSW 19:17:31 71° NNW 19:20:08 21° ENE
Cosmos 1656 Rocket 4.3 19:13:04 10° NNW 19:18:25 40° NE 19:20:40 28° E
IRIDIUM 104 4.3 19:13:30 10° N 19:18:45 88° E 19:23:42 12° S
STARLINK-1106 3.6 19:15:55 10° WNW 19:20:04 78° SSW 19:21:25 41° SE
STARLINK-1138 3.8 19:18:03 10° WSW 19:22:08 68° NNW 19:24:34 23° ENE
MOS 1 Rocket 3.5 19:17:44 10° NNE 19:22:57 66° E 19:28:18 10° S
STARLINK-1234 4.0 19:20:20 10° W 19:23:10 38° N 19:24:04 29° NNE
USA 186 4.3 19:20:28 10° SSW 19:23:16 23° W 19:26:01 10° NW
STARLINK-1112 3.6 19:20:56 10° WNW 19:25:05 73° SSW 19:26:14 45° SE
MetOp-A 4.4 19:21:25 12° S 19:26:26 70° WSW 19:31:49 10° NNW
STARLINK-1143 3.9 19:22:58 10° WSW 19:27:02 66° NNW 19:29:16 25° ENE
IRIDIUM 114 4.4 19:22:40 10° N 19:27:55 78° W 19:32:51 11° S
CZ-2C R/B 4.5 19:23:47 10° SSW 19:28:22 34° W 19:32:48 10° NNW
COSMOS 2455 4.2 19:24:18 10° NNW 19:29:18 26° NE 19:32:01 19° ENE
STARLINK-1128 3.7 19:25:55 10° WNW 19:30:03 69° SSW 19:31:01 49° SSE
Cosmos 1437 2.8 19:28:47 10° N 19:31:24 58° NNE 19:31:24 58° NNE
Cosmos 1470 4.1 19:28:29 10° SW 19:32:08 39° WNW 19:35:50 10° N
Cosmos 1726 Rocket 4.0 19:33:41 42° E 19:33:41 42° E 19:37:42 10° NNE
SPOT 3 Rocket 4.2 19:29:51 10° S 19:34:57 53° W 19:40:05 10° NNW
STARLINK-1113 3.7 19:30:54 10° WNW 19:35:00 64° SSW 19:35:47 51° SSE
STARLINK-1241 4.0 19:31:22 10° W 19:35:23 61° NNW 19:37:12 30° NE
Cosmos 1825 Rocket 3.4 19:32:05 10° N 19:36:32 81° E 19:37:53 44° SSE
NOSS 3-4 (A) 4.2 19:32:44 10° NW 19:39:20 50° NE 19:42:42 30° E
NOSS 3-4 (C) 4.2 19:32:50 10° NW 19:39:26 50° NE 19:42:48 30° E
STARLINK-1119 3.8 19:35:53 10° WNW 19:39:58 60° SSW 19:40:34 53° S
STARLINK-1239 4.0 19:36:18 10° W 19:40:19 58° NNW 19:41:56 32° NE
Cosmos 2369 Rocket 2.2 19:34:54 10° NNW 19:40:38 79° WSW 19:43:14 34° SSE
Cosmos 2327 Rocket 4.4 19:35:14 10° N 19:41:31 74° E 19:44:39 32° SSE
Cosmos 1726 2.1 19:42:57 54° SSW 19:43:45 85° W 19:47:32 10° N
STARLINK-1114 3.8 19:40:55 10° WNW 19:44:59 56° SSW 19:45:24 53° S
STARLINK-1240 4.1 19:41:04 10° W 19:45:03 56° NNW 19:46:29 35° NE
Aureole 2 Rocket 2.9 19:42:08 10° NNW 19:45:34 53° WSW 19:45:56 49° SW
Cosmos 1758 Rocket 3.7 19:41:56 10° NNW 19:46:17 69° W 19:47:54 37° SSW
Cosmos 2263 4.1 19:41:02 10° NNW 19:46:41 87° ENE 19:48:36 44° SSE
Cosmos 1908 4.1 19:48:57 37° NE 19:48:57 37° NE 19:51:33 10° NNE
SAR-Lupe-2 4.1 19:44:47 10° NNE 19:47:27 46° NNE 19:47:27 46° NNE
NOSS 3-3 (A) 3.8 19:43:44 10° SSW 19:49:31 63° SE 19:56:03 10° NE
NOSS 3-3 (C) 3.8 19:43:51 10° SSW 19:49:37 63° SE 19:56:09 10° NE
STARLINK-1216 4.1 19:45:49 10° W 19:49:49 55° NNW 19:51:02 38° NE
STARLINK-1130 (DARKSAT) 3.9 19:45:53 10° WNW 19:49:55 52° SW 19:50:10 51° SSW
Meteor 2-17 Rocket 4.3 19:45:17 10° N 19:51:27 75° E 19:53:46 40° SSE
Cosmos 1953 Rocket 3.4 19:48:21 10° N 19:52:49 81° E 19:53:22 68° SSE
STARLINK-1209 4.5 19:50:31 10° WNW 19:52:50 31° NNW 19:52:50 31° NNW
Terra 3.1 19:53:53 26° ENE 19:53:53 26° ENE 19:57:32 10° N
Cosmos 1295 Rocket 4.5 19:47:52 10° N 19:54:05 64° ENE 19:55:56 45° SE
STARLINK-1237 4.2 19:50:38 10° W 19:54:37 53° NNW 19:55:38 41° NE
STARLINK-1084 4.1 19:50:52 10° WNW 19:54:52 48° SW 19:54:56 48° SSW
Cosmos 2184 Rocket 4.3 19:49:04 10° NNW 19:55:22 68° W 19:59:37 21° S
Spot 2 Rocket 3.4 19:55:41 52° SSE 19:56:57 84° ENE 20:02:06 10° NNW
STARLINK-1202 4.2 19:55:23 10° W 19:59:22 51° NNW 20:00:11 43° NNE
STARLINK-1098 4.2 19:55:53 10° WNW 19:59:43 45° SW 19:59:43 45° SW
Cosmos 1606 Rocket 3.5 19:59:07 58° SSW 19:59:59 85° WNW 20:04:27 10° N
SPOT 1/Viking Rocket 3.5 20:00:50 57° ESE 20:01:27 62° ENE 20:06:37 10° N
Cosmos 1943 Rocket 3.1 19:56:40 10° NW 20:01:52 42° WSW 20:04:35 25° SSW
Cosmos 1943 3.0 20:01:04 24° SSW 20:04:35 72° ESE 20:10:16 10° NNE
STARLINK-1123 4.4 20:00:53 10° WNW 20:04:30 41° SW 20:04:30 41° SW
STARLINK-1246 4.3 20:02:37 10° W 20:06:37 50° N 20:07:11 46° NNE
SL-8 R/B 3.7 20:02:56 10° W 20:07:34 63° SSW 20:07:34 63° SSW
ATLAS 2AS CENTAUR R/B 2.9 20:04:33 10° NW 20:12:17 72° NE 20:14:22 49° ESE
Cosmos 1340 Rocket 4.5 20:15:29 25° NNE 20:15:29 25° NNE 20:17:20 10° NNE
STARLINK-1224 4.3 20:09:47 10° W 20:13:45 48° N 20:13:57 47° N
USA 234 3.3 20:07:43 10° NE 20:14:16 77° NNW 20:20:47 10° WSW
STARLINK-1203 4.4 20:11:13 10° W 20:15:04 46° N 20:15:06 46° N
Cosmos 2181 Rocket 4.4 20:15:29 43° E 20:15:29 43° E 20:20:55 10° NNE
APEX 4.5 20:09:04 10° NNW 20:16:00 65° NE 20:17:02 56° E
USA 245 4.1 20:15:17 59° SSW 20:16:14 76° W 20:22:07 10° NNW
Cosmos 2154 Rocket 4.1 20:10:08 10° NNW 20:16:29 73° W 20:19:00 39° S
Resurs 01 Rocket 3.2 20:16:27 23° SW 20:18:12 31° W 20:22:09 10° NNW
STARLINK-1225 4.4 20:14:25 10° W 20:18:22 47° N 20:18:24 47° N
Cosmos 921 Rocket 4.1 20:18:29 10° N 20:21:21 36° NNE 20:21:21 36° NNE
SL-16 R/B 4.2 20:17:54 10° WSW 20:22:41 27° NW 20:27:29 10° NNE
STARLINK-1230 4.5 20:19:11 10° W 20:22:57 46° NNW 20:22:57 46° NNW
Cosmos 2228 3.7 20:22:39 49° WSW 20:23:11 52° WNW 20:27:25 10° N
Cosmos 967 Rocket 4.5 20:18:21 10° SW 20:24:50 87° NW 20:31:22 10° NE
Iridium 4 Rocket 4.5 20:26:23 10° N 20:28:55 30° NNE 20:28:55 30° NNE
Cosmos 962 Rocket 4.4 20:24:33 10° N 20:30:48 88° W 20:31:43 67° S
Nadezhda 1 Rocket 4.4 20:29:47 21° SSW 20:34:04 61° WNW 20:40:25 10° N
SL-8 Rocket 3.9 20:30:27 10° N 20:36:46 72° E 20:37:01 71° E
ISS -0.8 20:35:01 10° W 20:35:39 14° W 20:35:39 14° W
Cosmos 2058 Rocket 3.8 20:42:38 52° NNW 20:42:38 52° NNW 20:46:19 10° N
SPOT 5 3.5 20:44:25 48° NNW 20:44:25 48° NNW 20:47:35 10° NNW
Cosmos 614 Rocket 4.4 20:44:49 55° NNE 20:44:49 55° NNE 20:48:54 10° NNE
Cosmos 1603 4.4 20:38:32 10° SW 20:44:00 51° NW 20:49:30 10° NNE
Cosmos 2366 rocket 4.0 20:38:25 10° N 20:44:18 65° ENE 20:44:18 65° ENE
ERS-1 Rocket 3.2 20:48:38 64° WNW 20:48:38 64° WNW 20:53:11 10° NNW
CZ-2C R/B 4.4 20:44:16 10° N 20:48:38 28° WNW 20:52:58 10° WSW
CZ-4C R/B 4.4 20:43:24 10° NW 20:48:40 25° NNE 20:53:35 13° ENE
Cosmos 1980 Rocket 4.4 20:49:22 10° N 20:52:10 14° NNE 20:53:43 12° NE
Cosmos 1959 Rocket 4.4 20:53:41 10° N 20:59:53 84° NNE 20:59:53 84° NNE
Aureole 1 Rocket 4.4 21:01:51 34° SW 21:05:32 73° WNW 21:12:00 10° NNE
COSMOS 2455 3.1 21:09:57 10° NW 21:15:09 67° NW 21:15:09 67° NW
NOSS 3-4 (A) 4.2 21:23:40 10° NW 21:30:09 53° WSW 21:30:09 53° WSW
NOSS 3-4 (C) 4.2 21:23:46 10° NW 21:30:14 53° WSW 21:30:14 53° WSW
Terra 3.4 21:32:46 32° NW 21:32:46 32° NW 21:35:41 10° NNW
ATLAS CENTAUR R/B 4.2 21:30:45 10° N 21:31:52 13° N 21:31:52 13° N
USA 234 4.1 21:50:42 10° ENE 21:56:52 45° N 22:03:01 10° W
ATLAS 2AS CENTAUR R/B 4.0 21:56:15 10° NW 22:01:48 31° W 22:01:48 31° W
Cosmos 1697 Rocket 4.0 22:06:36 10° NNW 22:10:12 37° N 22:10:12 37° N
SL-16 R/B 4.4 22:10:50 10° N 22:14:27 17° NE 22:15:23 16° NE
Mayak 1.6 22:14:31 10° N 22:15:32 16° NNW 22:15:32 16° NNW
Cosmos 2322 Rocket 4.4 22:25:05 10° N 22:28:49 18° NE 22:29:38 17° NE
Cosmos 1980 Rocket 3.7 22:32:09 10° NNW 22:35:28 33° N 22:35:28 33° N
CZ-4C R/B 3.4 22:32:02 10° NW 22:38:44 52° NE 22:38:44 52° NE
Cosmos 2082 Rocket 4.1 23:00:52 22° NE 23:00:52 22° NE 23:02:54 10° NE
ATLAS 5 CENTAUR R/B 4.1 23:20:05 21° N 23:20:05 21° N 23:22:29 10° NNE
Cosmos 1833 Rocket 4.2 23:28:31 33° NNE 23:28:31 33° NNE 23:31:35 10° NNE
CZ-2D R/B 4.4 23:30:46 10° NE 23:32:53 17° ENE 23:32:53 17° ENE
Resurs 1-4 Rocket 4.4 23:32:15 10° NE 23:34:06 16° ENE 23:34:06 16° ENE
USA 234 4.1 23:33:00 10° E 23:39:11 47° N 23:45:22 10° WNW
SL-16 R/B 3.4 23:52:44 44° NE 23:52:44 44° NE 23:58:07 10° N
